Simultaneous Nadir Overpasses (SNOs) Predictions

Prediction of SNOs between FY3D and METOP-C Satellite Orbit:

Table of predicted SNOs for the next 14.0 days since TLE Epoch: 3/4/2023
Index Date (FY3D) Time (FY3D) Lat,Lon (FY3D) SZA (FY3D ) Date (METOP-C) Time (METOP-C) Lat,Lon (METOP-C) SZA (METOP-C ) Distance(km) Time Diff (sec)
1 03/17/2023 00:55:04 -75.24, -19.39 103.19 03/17/2023 00:56:10 -75.18, -16.31 103.35 87.91 66
2 03/17/2023 01:45:44 74.91, 148.86 76.45 03/17/2023 01:46:55 74.88, 150.18 76.36 38.45 71
3 03/17/2023 02:36:27 -74.83, -43.59 103.66 03/17/2023 02:37:39 -74.82, -42.66 103.71 26.91 72
4 03/17/2023 03:27:10 74.65, 124.23 76.13 03/17/2023 03:28:21 74.66, 124.25 76.13 1.29 71
5 03/17/2023 04:17:55 -74.66, -68.49 103.87 03/17/2023 04:19:04 -74.65, -68.46 103.90 1.61 69
6 03/17/2023 05:08:41 74.62, 98.92 76.08 03/17/2023 05:09:43 74.64, 98.84 76.08 2.80 62
7 03/17/2023 05:59:26 -74.64, -93.80 103.93 03/17/2023 06:00:26 -74.63, -93.86 103.95 2.16 60
8 03/17/2023 06:50:13 74.64, 73.48 76.07 03/17/2023 06:51:04 74.66, 73.57 76.08 3.28 51
9 03/17/2023 07:40:58 -74.66,-119.24 103.94 03/17/2023 07:41:47 -74.65,-119.14 103.95 3.10 49
10 03/17/2023 08:31:44 74.62, 48.17 76.01 03/17/2023 08:32:26 74.64, 48.17 76.03 2.30 42
11 03/17/2023 09:22:29 -74.63,-144.55 103.99 03/17/2023 09:23:09 -74.63,-144.54 104.00 0.39 40
12 03/17/2023 10:13:16 74.64, 22.73 76.01 03/17/2023 10:13:48 74.62, 22.77 75.98 2.88 32
13 03/17/2023 11:04:00 -74.60,-169.85 104.05 03/17/2023 11:04:31 -74.60,-169.94 104.05 2.52 31
14 03/17/2023 11:54:47 74.61, -2.57 75.95 03/17/2023 11:55:10 74.59, -2.64 75.93 2.99 23
15 03/17/2023 12:45:32 -74.63, 164.71 104.05 03/17/2023 12:45:52 -74.63, 164.79 104.05 2.45 20
16 03/17/2023 13:36:18 74.59, -27.88 75.90 03/17/2023 13:36:31 74.62, -27.91 75.93 3.46 13
17 03/17/2023 14:27:03 -74.60, 139.40 104.11 03/17/2023 14:27:14 -74.61, 139.39 104.10 0.81 11
18 03/17/2023 15:17:50 74.61, -53.32 75.89 03/17/2023 15:17:53 74.59, -53.31 75.88 1.68 3
19 03/17/2023 16:08:34 -74.57, 114.09 104.17 03/17/2023 16:08:36 -74.58, 113.98 104.15 3.30 2
20 03/17/2023 16:59:21 74.58, -78.63 75.84 03/17/2023 16:59:15 74.57, -78.71 75.83 2.75 6
21 03/17/2023 17:50:06 -74.60, 88.65 104.17 03/17/2023 17:49:57 -74.61, 88.71 104.16 2.31 9
22 03/17/2023 18:40:53 74.60,-104.07 75.83 03/17/2023 18:40:36 74.60,-103.98 75.82 2.69 17
23 03/17/2023 19:31:37 -74.57, 63.34 104.23 03/17/2023 19:31:19 -74.58, 63.31 104.21 1.99 18
24 03/17/2023 20:22:24 74.58,-129.38 75.77 03/17/2023 20:21:58 74.57,-129.39 75.77 0.64 26
25 03/17/2023 21:13:09 -74.59, 37.90 104.23 03/17/2023 21:12:41 -74.56, 37.91 104.26 3.27 28
26 03/17/2023 22:03:55 74.55,-154.69 75.72 03/17/2023 22:03:20 74.55,-154.79 75.72 3.03 35
27 03/17/2023 22:54:40 -74.56, 12.59 104.29 03/17/2023 22:54:02 -74.59, 12.63 104.26 2.72 38
28 03/17/2023 23:45:26 74.57, 179.87 75.71 03/17/2023 23:44:40 74.57, 179.94 75.72 1.94 46
29 03/18/2023 00:36:10 -74.54, -12.72 104.34 03/18/2023 00:35:23 -74.56, -12.77 104.31 3.15 47
30 03/18/2023 01:26:57 74.55, 154.57 75.66 03/18/2023 01:26:02 74.55, 154.54 75.67 0.94 55
31 03/18/2023 02:17:42 -74.56, -38.16 104.35 03/18/2023 02:16:45 -74.54, -38.17 104.36 2.32 57
32 03/18/2023 03:08:28 74.52, 129.26 75.60 03/18/2023 03:07:24 74.53, 129.14 75.62 3.67 64



Historial Predications of SNOs between FY3D and METOP-C
